Location: Cambroso
(45.2833°N, 12.0850°E)
Time: 12:38:27
(UTC+00:00)

Cosmos 923 Rocket - Pass Details

Date: 21 January 2021
Orbit: 758 x 785 km, 74.0° (Epoch: 06 March)

Event Time Altitude Azimuth Distance (km) Brightness Sun altitude
Rises 17:33:56 0° 341° (NNW) 3,286 7.4 -15.7°
Reaches altitude 10° 17:36:23 10° 344° (NNW) 2,352 6.6 -16.2°
Maximum altitude 17:41:41 63° 66° (ENE) 873 4.0 -17.1°
Drops below altitude 10° 17:46:56 10° 148° (SSE) 2,325 6.3 -18.0°
Sets 17:49:20 0° 151° (SSE) 3,244 7.1 -18.4°
